EJU7962 EPKK-EHAM

Flight info

Callsign EJU7962
Flight time 1h 41m
Altitude 38000
Route OMFOL T738 EKSEK DCT NAROX DCT ZUCKA DCT NORKU
Aircraft A319/M-SDE3FGHIRWY/LB1

Departure

Time 2026-05-04 17:52
Airport Kraków John Paul II International Airport (EPKK)

Arrival

Time 2026-05-04 19:34
Airport Amsterdam Airport Schiphol (EHAM)
Time Latitude Longitude Altitude Speed Heading
2026-05-04 17:23 50.07496 19.80275 789 ft 0 kts 168°
2026-05-04 17:47 50.07494 19.80276 789 ft 1 kts 168°
2026-05-04 17:47 50.07470 19.80284 789 ft 6 kts 167°
2026-05-04 17:47 50.07445 19.80327 789 ft 7 kts 101°
2026-05-04 17:48 50.07474 19.80380 789 ft 7 kts 20°
2026-05-04 17:48 50.07524 19.80406 789 ft 8 kts 17°
2026-05-04 17:48 50.07562 19.80422 789 ft 9 kts 11°
2026-05-04 17:48 50.07654 19.80404 789 ft 11 kts 347°
2026-05-04 17:49 50.07729 19.80376 789 ft 11 kts 347°
2026-05-04 17:49 50.07809 19.80347 789 ft 12 kts 347°
2026-05-04 17:49 50.07894 19.80319 789 ft 13 kts 348°
2026-05-04 17:49 50.07986 19.80287 788 ft 13 kts 348°
2026-05-04 17:50 50.08019 19.80253 788 ft 7 kts 285°
2026-05-04 17:50 50.08017 19.80224 788 ft 0 kts 257°
2026-05-04 17:52 50.07975 19.79918 788 ft 69 kts 258°
2026-05-04 17:52 50.07819 19.78809 792 ft 137 kts 258°
2026-05-04 17:52 50.07606 19.77186 1161 ft 156 kts 259°
2026-05-04 17:52 50.07388 19.75520 1871 ft 157 kts 256°
2026-05-04 17:53 50.07143 19.73803 2415 ft 171 kts 254°
2026-05-04 17:53 50.06861 19.71873 2797 ft 195 kts 255°
2026-05-04 17:53 50.06542 19.69672 3226 ft 221 kts 255°
2026-05-04 17:53 50.06186 19.67205 3793 ft 245 kts 255°
2026-05-04 17:54 50.05809 19.64561 4707 ft 253 kts 255°
2026-05-04 17:54 50.05433 19.61898 5719 ft 258 kts 256°
2026-05-04 17:54 50.05042 19.59113 6709 ft 263 kts 257°
2026-05-04 17:54 50.04656 19.56344 7634 ft 267 kts 257°
2026-05-04 17:55 50.04526 19.53406 8554 ft 275 kts 276°
2026-05-04 17:55 50.05092 19.50529 9507 ft 281 kts 288°
2026-05-04 17:55 50.05797 19.47657 10284 ft 292 kts 288°
2026-05-04 17:55 50.06546 19.44621 10668 ft 313 kts 288°
2026-05-04 17:56 50.07338 19.41410 11389 ft 321 kts 288°
2026-05-04 17:56 50.08147 19.38140 12231 ft 325 kts 288°
2026-05-04 17:56 50.08963 19.34831 13080 ft 329 kts 288°
2026-05-04 17:56 50.09782 19.31487 13914 ft 333 kts 287°
2026-05-04 17:57 50.10610 19.28099 14658 ft 336 kts 287°
2026-05-04 17:57 50.11441 19.24688 15405 ft 339 kts 287°
2026-05-04 17:57 50.11853 19.22999 15774 ft 340 kts 288°
2026-05-04 17:57 50.12491 19.20379 16338 ft 343 kts 288°
2026-05-04 17:58 50.13339 19.16881 17061 ft 346 kts 288°
2026-05-04 17:58 50.14194 19.13353 17785 ft 350 kts 288°
2026-05-04 17:58 50.15057 19.09792 18490 ft 353 kts 288°
2026-05-04 17:58 50.15929 19.06197 19111 ft 357 kts 288°
2026-05-04 17:59 50.16812 19.02548 19722 ft 360 kts 288°
2026-05-04 17:59 50.17699 18.98865 20334 ft 364 kts 288°
2026-05-04 17:59 50.19485 18.91438 21541 ft 372 kts 289°
2026-05-04 18:00 50.20400 18.87629 22129 ft 376 kts 289°
2026-05-04 18:00 50.21322 18.83787 22717 ft 380 kts 289°
2026-05-04 18:00 50.22251 18.79906 23313 ft 383 kts 289°
2026-05-04 18:00 50.23186 18.75992 23836 ft 387 kts 290°
2026-05-04 18:01 50.24131 18.72022 24331 ft 390 kts 290°
2026-05-04 18:01 50.24530 18.70346 24533 ft 391 kts 290°
2026-05-04 18:01 50.24845 18.69020 24721 ft 392 kts 290°
2026-05-04 18:02 50.26747 18.61004 25753 ft 395 kts 290°
2026-05-04 18:02 50.27712 18.56911 26234 ft 397 kts 290°
2026-05-04 18:02 50.28653 18.52909 26702 ft 399 kts 290°
2026-05-04 18:02 50.29277 18.50262 27000 ft 401 kts 290°
2026-05-04 18:03 50.29629 18.48772 27175 ft 402 kts 290°
2026-05-04 18:03 50.30585 18.44710 27621 ft 404 kts 290°
2026-05-04 18:03 50.31283 18.41734 27945 ft 406 kts 290°
2026-05-04 18:03 50.32069 18.38380 28313 ft 408 kts 290°
2026-05-04 18:04 50.32557 18.36295 28534 ft 409 kts 290°
2026-05-04 18:04 50.33539 18.32109 28987 ft 411 kts 290°
2026-05-04 18:04 50.35518 18.23646 29863 ft 416 kts 290°
2026-05-04 18:05 50.36511 18.19377 30244 ft 419 kts 290°
2026-05-04 18:05 50.37507 18.15074 30609 ft 421 kts 289°
2026-05-04 18:05 50.38506 18.10751 30967 ft 423 kts 289°
2026-05-04 18:05 50.39507 18.06408 31324 ft 424 kts 289°
2026-05-04 18:06 50.41508 17.97691 32206 ft 423 kts 289°
2026-05-04 18:06 50.42501 17.93357 32723 ft 421 kts 289°
2026-05-04 18:06 50.43475 17.89108 33218 ft 419 kts 289°
2026-05-04 18:07 50.44457 17.84813 33741 ft 417 kts 289°
2026-05-04 18:07 50.45455 17.80550 34246 ft 415 kts 290°
2026-05-04 18:07 50.46553 17.76380 34676 ft 413 kts 292°
2026-05-04 18:07 50.47737 17.72273 35070 ft 413 kts 294°
2026-05-04 18:08 50.48963 17.68192 35444 ft 412 kts 294°
2026-05-04 18:08 50.50194 17.64122 35808 ft 411 kts 294°
2026-05-04 18:08 50.51411 17.60058 36154 ft 411 kts 294°
2026-05-04 18:08 50.52605 17.55984 36509 ft 410 kts 293°
2026-05-04 18:09 50.54082 17.50844 36931 ft 410 kts 293°
2026-05-04 18:09 50.55424 17.46107 37303 ft 409 kts 293°
2026-05-04 18:10 50.56578 17.42024 37633 ft 409 kts 292°
2026-05-04 18:10 50.57733 17.37939 37884 ft 409 kts 292°
2026-05-04 18:10 50.60041 17.29782 37948 ft 406 kts 292°
2026-05-04 18:11 50.62336 17.21663 37939 ft 406 kts 292°
2026-05-04 18:11 50.64629 17.13538 37938 ft 406 kts 292°
2026-05-04 18:12 50.66912 17.05395 37943 ft 406 kts 292°
2026-05-04 18:12 50.69183 16.97258 37955 ft 406 kts 292°
2026-05-04 18:13 50.71444 16.89090 37954 ft 406 kts 292°
2026-05-04 18:14 50.74742 16.76861 37960 ft 405 kts 291°
2026-05-04 18:14 50.76938 16.68661 37961 ft 405 kts 291°
2026-05-04 18:15 50.81326 16.52250 37968 ft 405 kts 291°
2026-05-04 18:16 50.83514 16.44032 37964 ft 405 kts 291°
2026-05-04 18:16 50.85694 16.35827 37964 ft 404 kts 291°
2026-05-04 18:17 50.88931 16.23561 37955 ft 403 kts 291°
2026-05-04 18:18 50.92156 16.11250 37969 ft 403 kts 291°
2026-05-04 18:18 50.94020 16.05804 37979 ft 405 kts 302°
2026-05-04 18:19 50.98753 15.94712 37975 ft 404 kts 301°
2026-05-04 18:19 51.01867 15.87304 37967 ft 403 kts 301°
2026-05-04 18:20 51.04969 15.79902 37967 ft 402 kts 301°
2026-05-04 18:20 51.08069 15.72503 37964 ft 402 kts 301°
2026-05-04 18:21 51.11169 15.65075 37952 ft 402 kts 300°
2026-05-04 18:21 51.13334 15.57053 37941 ft 397 kts 281°
2026-05-04 18:22 51.14420 15.48446 37946 ft 397 kts 280°
2026-05-04 18:22 51.15514 15.39823 37946 ft 397 kts 280°
2026-05-04 18:23 51.16604 15.31192 37946 ft 398 kts 279°
2026-05-04 18:23 51.17679 15.22524 37943 ft 399 kts 279°
2026-05-04 18:24 51.18746 15.13846 37950 ft 399 kts 279°
2026-05-04 18:24 51.19807 15.05153 37957 ft 399 kts 279°
2026-05-04 18:25 51.20887 14.96470 37967 ft 400 kts 280°
2026-05-04 18:25 51.22044 14.87796 37984 ft 400 kts 280°
2026-05-04 18:26 51.23216 14.79122 37978 ft 400 kts 280°
2026-05-04 18:26 51.24353 14.70500 37977 ft 400 kts 280°
2026-05-04 18:27 51.25473 14.61810 37980 ft 400 kts 280°
2026-05-04 18:27 51.26592 14.53115 37989 ft 400 kts 280°
2026-05-04 18:28 51.27707 14.44409 37982 ft 400 kts 280°
2026-05-04 18:28 51.28818 14.35717 37994 ft 400 kts 279°
2026-05-04 18:29 51.29920 14.27027 37990 ft 399 kts 279°
2026-05-04 18:29 51.31019 14.18324 37993 ft 399 kts 279°
2026-05-04 18:30 51.32648 14.05282 37996 ft 398 kts 279°
2026-05-04 18:31 51.33727 13.96593 37995 ft 398 kts 279°
2026-05-04 18:31 51.34611 13.89389 37988 ft 398 kts 279°
2026-05-04 18:32 51.35671 13.80704 37990 ft 398 kts 279°
2026-05-04 18:32 51.36731 13.72012 37988 ft 397 kts 279°
2026-05-04 18:33 51.37780 13.63328 37982 ft 397 kts 279°
2026-05-04 18:33 51.38827 13.54647 37982 ft 397 kts 279°
2026-05-04 18:34 51.39862 13.45961 37977 ft 397 kts 278°
2026-05-04 18:34 51.40890 13.37264 37963 ft 397 kts 278°
2026-05-04 18:35 51.41909 13.28549 37961 ft 398 kts 278°
2026-05-04 18:35 51.42931 13.19839 37959 ft 398 kts 278°
2026-05-04 18:36 51.43940 13.11159 37961 ft 398 kts 278°
2026-05-04 18:36 51.44949 13.02422 37969 ft 399 kts 278°
2026-05-04 18:37 51.45953 12.93677 37956 ft 399 kts 278°
2026-05-04 18:37 51.46950 12.84913 37956 ft 400 kts 278°
2026-05-04 18:38 51.47941 12.76135 37953 ft 400 kts 278°
2026-05-04 18:38 51.48936 12.67328 37955 ft 401 kts 278°
2026-05-04 18:39 51.49919 12.58537 37973 ft 401 kts 278°
2026-05-04 18:39 51.50896 12.49719 37965 ft 401 kts 278°
2026-05-04 18:40 51.51860 12.40897 37960 ft 401 kts 278°
2026-05-04 18:40 51.52820 12.32080 37954 ft 401 kts 277°
2026-05-04 18:41 51.53770 12.23264 37950 ft 401 kts 277°
2026-05-04 18:41 51.54720 12.14449 37959 ft 401 kts 277°
2026-05-04 18:42 51.55661 12.05629 37982 ft 400 kts 277°
2026-05-04 18:42 51.56591 11.96814 37981 ft 399 kts 277°
2026-05-04 18:43 51.57503 11.88075 37979 ft 399 kts 277°
2026-05-04 18:43 51.58423 11.79226 37986 ft 398 kts 277°
2026-05-04 18:44 51.59331 11.70504 37977 ft 398 kts 277°
2026-05-04 18:44 51.60237 11.61713 37983 ft 398 kts 276°
2026-05-04 18:45 51.61130 11.52900 37972 ft 398 kts 276°
2026-05-04 18:45 51.62016 11.44095 37956 ft 398 kts 276°
2026-05-04 18:46 51.62898 11.35302 37958 ft 398 kts 276°
2026-05-04 18:46 51.63774 11.26490 37961 ft 398 kts 276°
2026-05-04 18:47 51.64643 11.17683 37982 ft 398 kts 276°
2026-05-04 18:47 51.65507 11.08904 37966 ft 399 kts 276°
2026-05-04 18:48 51.66369 11.00070 37958 ft 400 kts 276°
2026-05-04 18:48 51.67222 10.91203 37959 ft 400 kts 276°
2026-05-04 18:49 51.68494 10.82421 37959 ft 403 kts 281°
2026-05-04 18:49 51.69862 10.73663 37961 ft 403 kts 281°
2026-05-04 18:50 51.71223 10.64893 37970 ft 404 kts 281°
2026-05-04 18:50 51.72574 10.56094 37960 ft 404 kts 281°
2026-05-04 18:51 51.73920 10.47274 37964 ft 405 kts 281°
2026-05-04 18:51 51.75266 10.38451 37963 ft 405 kts 281°
2026-05-04 18:52 51.76608 10.29605 37968 ft 406 kts 281°
2026-05-04 18:52 51.77940 10.20749 37988 ft 406 kts 281°
2026-05-04 18:53 51.79271 10.11884 37986 ft 405 kts 280°
2026-05-04 18:53 51.80579 10.03091 37985 ft 405 kts 280°
2026-05-04 18:54 51.81887 9.94239 37982 ft 405 kts 280°
2026-05-04 18:54 51.83194 9.85372 37981 ft 405 kts 280°
2026-05-04 18:55 51.84491 9.76511 37984 ft 405 kts 280°
2026-05-04 18:55 51.86424 9.63214 37985 ft 405 kts 280°
2026-05-04 18:56 51.87703 9.54331 37981 ft 405 kts 279°
2026-05-04 18:56 51.88969 9.45464 37979 ft 404 kts 279°
2026-05-04 18:57 51.90236 9.36586 37962 ft 404 kts 279°
2026-05-04 18:57 51.91500 9.27683 37960 ft 404 kts 279°
2026-05-04 18:58 51.92750 9.18815 37969 ft 404 kts 279°
2026-05-04 18:58 51.93993 9.09970 37973 ft 404 kts 279°
2026-05-04 18:59 51.95225 9.01096 37976 ft 404 kts 279°
2026-05-04 18:59 51.96457 8.92211 37976 ft 404 kts 279°
2026-05-04 19:00 51.97687 8.83303 37975 ft 404 kts 279°
2026-05-04 19:00 51.98902 8.74403 37976 ft 404 kts 279°
2026-05-04 19:01 52.00112 8.65491 37967 ft 405 kts 279°
2026-05-04 19:01 52.01321 8.56555 37961 ft 405 kts 279°
2026-05-04 19:02 52.02524 8.47626 37961 ft 405 kts 279°
2026-05-04 19:02 52.03715 8.38680 37962 ft 405 kts 279°
2026-05-04 19:03 52.04896 8.29776 37972 ft 406 kts 279°
2026-05-04 19:03 52.06077 8.20796 37961 ft 407 kts 278°
2026-05-04 19:04 52.07257 8.11798 37957 ft 407 kts 279°
2026-05-04 19:04 52.08428 8.02789 37956 ft 408 kts 278°
2026-05-04 19:05 52.09012 7.98271 37821 ft 410 kts 278°
2026-05-04 19:05 52.09600 7.93740 37543 ft 408 kts 278°
2026-05-04 19:05 52.10183 7.89230 37271 ft 407 kts 278°
2026-05-04 19:05 52.10764 7.84723 36943 ft 407 kts 278°
2026-05-04 19:06 52.11338 7.80221 36508 ft 407 kts 277°
2026-05-04 19:06 52.11911 7.75709 35990 ft 406 kts 277°
2026-05-04 19:06 52.12480 7.71220 35488 ft 404 kts 277°
2026-05-04 19:06 52.13046 7.66748 35002 ft 400 kts 277°
2026-05-04 19:07 52.13604 7.62333 34539 ft 396 kts 276°
2026-05-04 19:07 52.14154 7.57965 34083 ft 392 kts 276°
2026-05-04 19:07 52.14699 7.53642 33561 ft 388 kts 276°
2026-05-04 19:07 52.15236 7.49361 33044 ft 384 kts 276°
2026-05-04 19:08 52.15764 7.45119 32529 ft 380 kts 276°
2026-05-04 19:08 52.16287 7.40912 32020 ft 377 kts 276°
2026-05-04 19:08 52.16805 7.36741 31556 ft 375 kts 276°
2026-05-04 19:08 52.17318 7.32581 31061 ft 374 kts 276°
2026-05-04 19:09 52.17821 7.28490 30589 ft 373 kts 276°
2026-05-04 19:09 52.18333 7.24311 30116 ft 372 kts 276°
2026-05-04 19:09 52.18836 7.20166 29579 ft 371 kts 276°
2026-05-04 19:09 52.19334 7.16045 29049 ft 370 kts 276°
2026-05-04 19:10 52.19824 7.11980 28526 ft 369 kts 276°
2026-05-04 19:10 52.20317 7.07879 28012 ft 369 kts 276°
2026-05-04 19:10 52.20812 7.03780 27531 ft 368 kts 276°
2026-05-04 19:10 52.21469 6.99739 27055 ft 372 kts 286°
2026-05-04 19:11 52.22599 6.95910 26585 ft 377 kts 297°
2026-05-04 19:11 52.24160 6.92449 26136 ft 381 kts 305°
2026-05-04 19:11 52.25847 6.89104 25704 ft 381 kts 306°
2026-05-04 19:11 52.27524 6.85765 25206 ft 381 kts 306°
2026-05-04 19:12 52.29201 6.82410 24742 ft 381 kts 306°
2026-05-04 19:12 52.32549 6.75670 23791 ft 381 kts 306°
2026-05-04 19:12 52.34217 6.72314 23298 ft 381 kts 307°
2026-05-04 19:13 52.35890 6.68949 22749 ft 381 kts 307°
2026-05-04 19:13 52.37557 6.65592 22211 ft 380 kts 307°
2026-05-04 19:13 52.39217 6.62240 21685 ft 379 kts 307°
2026-05-04 19:13 52.40872 6.58888 21166 ft 377 kts 307°
2026-05-04 19:14 52.42515 6.55554 20661 ft 375 kts 307°
2026-05-04 19:14 52.43597 6.53359 20328 ft 374 kts 307°
2026-05-04 19:14 52.45201 6.50026 19829 ft 370 kts 303°
2026-05-04 19:14 52.46413 6.46340 19346 ft 365 kts 290°
2026-05-04 19:15 52.47064 6.42356 18895 ft 359 kts 277°
2026-05-04 19:15 52.47282 6.38310 18490 ft 354 kts 274°
2026-05-04 19:15 52.47542 6.32970 17916 ft 348 kts 274°
2026-05-04 19:15 52.47674 6.30366 17621 ft 345 kts 274°
2026-05-04 19:16 52.47873 6.26465 17167 ft 341 kts 274°
2026-05-04 19:16 52.48070 6.22596 16720 ft 338 kts 274°
2026-05-04 19:16 52.48261 6.18773 16282 ft 335 kts 274°
2026-05-04 19:16 52.48448 6.14990 15850 ft 332 kts 274°
2026-05-04 19:17 52.48631 6.11226 15426 ft 330 kts 274°
2026-05-04 19:17 52.48811 6.07482 14993 ft 327 kts 274°
2026-05-04 19:17 52.48988 6.03771 14591 ft 325 kts 274°
2026-05-04 19:17 52.49160 6.00087 14181 ft 323 kts 274°
2026-05-04 19:18 52.49330 5.96432 13785 ft 321 kts 274°
2026-05-04 19:18 52.49499 5.92789 13326 ft 318 kts 274°
2026-05-04 19:18 52.49670 5.89184 12876 ft 316 kts 274°
2026-05-04 19:18 52.49838 5.85609 12431 ft 314 kts 274°
2026-05-04 19:19 52.50004 5.82038 11995 ft 312 kts 274°
2026-05-04 19:19 52.50165 5.78506 11563 ft 309 kts 274°
2026-05-04 19:19 52.50322 5.75041 11150 ft 307 kts 273°
2026-05-04 19:19 52.50477 5.71554 10731 ft 305 kts 273°
2026-05-04 19:20 52.50630 5.68093 10317 ft 303 kts 273°
2026-05-04 19:20 52.50781 5.64663 10011 ft 297 kts 273°
2026-05-04 19:20 52.50923 5.61349 9972 ft 286 kts 272°
2026-05-04 19:20 52.50759 5.58118 9717 ft 283 kts 256°
2026-05-04 19:21 52.50066 5.55117 9464 ft 281 kts 240°
2026-05-04 19:21 52.48934 5.52514 9222 ft 280 kts 230°
2026-05-04 19:21 52.47697 5.50058 8989 ft 278 kts 230°
2026-05-04 19:21 52.46474 5.47607 8760 ft 278 kts 231°
2026-05-04 19:22 52.45255 5.45162 8530 ft 276 kts 231°
2026-05-04 19:22 52.44037 5.42722 8298 ft 276 kts 231°
2026-05-04 19:22 52.42823 5.40290 8073 ft 274 kts 231°
2026-05-04 19:22 52.41631 5.37902 7843 ft 273 kts 231°
2026-05-04 19:23 52.40428 5.35501 7607 ft 272 kts 231°
2026-05-04 19:23 52.39221 5.33097 7385 ft 274 kts 231°
2026-05-04 19:23 52.38010 5.30687 7159 ft 275 kts 231°
2026-05-04 19:23 52.36795 5.28273 6937 ft 275 kts 231°
2026-05-04 19:24 52.35584 5.25864 6714 ft 274 kts 231°
2026-05-04 19:24 52.34375 5.23456 6495 ft 273 kts 231°
2026-05-04 19:24 52.33173 5.21070 6273 ft 273 kts 231°
2026-05-04 19:24 52.31968 5.18678 6032 ft 272 kts 231°
2026-05-04 19:25 52.30761 5.16287 5803 ft 272 kts 231°
2026-05-04 19:25 52.29556 5.13905 5579 ft 271 kts 231°
2026-05-04 19:25 52.28356 5.11532 5351 ft 271 kts 231°
2026-05-04 19:25 52.27153 5.09156 5120 ft 271 kts 231°
2026-05-04 19:26 52.25952 5.06783 4900 ft 270 kts 231°
2026-05-04 19:26 52.24719 5.04478 4667 ft 270 kts 223°
2026-05-04 19:26 52.23195 5.02748 4424 ft 263 kts 211°
2026-05-04 19:26 52.21609 5.01209 4208 ft 268 kts 211°
2026-05-04 19:27 52.20004 4.99651 3969 ft 269 kts 211°
2026-05-04 19:27 52.18393 4.98086 3744 ft 269 kts 211°
2026-05-04 19:27 52.16785 4.96523 3523 ft 269 kts 211°
2026-05-04 19:27 52.15196 4.94979 3302 ft 270 kts 211°
2026-05-04 19:28 52.13598 4.93427 3072 ft 268 kts 211°
2026-05-04 19:28 52.12124 4.91580 2837 ft 269 kts 230°
2026-05-04 19:28 52.11233 4.88936 2599 ft 266 kts 256°
2026-05-04 19:28 52.11056 4.86017 2361 ft 253 kts 273°
2026-05-04 19:29 52.11066 4.83246 2135 ft 237 kts 274°
2026-05-04 19:29 52.11393 4.80725 2020 ft 222 kts 296°
2026-05-04 19:29 52.12207 4.78725 1994 ft 204 kts 317°
2026-05-04 19:29 52.13272 4.77379 2000 ft 188 kts 335°
2026-05-04 19:30 52.14459 4.76647 2000 ft 179 kts 352°
2026-05-04 19:30 52.15686 4.76500 2004 ft 176 kts
2026-05-04 19:30 52.16888 4.76612 2040 ft 165 kts
2026-05-04 19:30 52.18031 4.76716 2014 ft 166 kts
2026-05-04 19:31 52.19189 4.76823 1916 ft 166 kts
2026-05-04 19:31 52.20311 4.76925 1741 ft 155 kts
2026-05-04 19:31 52.21311 4.77015 1548 ft 134 kts
2026-05-04 19:31 52.22199 4.77097 1378 ft 124 kts
2026-05-04 19:32 52.23045 4.77175 1217 ft 120 kts
2026-05-04 19:32 52.23873 4.77255 1066 ft 119 kts
2026-05-04 19:32 52.24702 4.77336 879 ft 119 kts
2026-05-04 19:32 52.25511 4.77406 714 ft 117 kts
2026-05-04 19:33 52.26330 4.77487 561 ft 118 kts
2026-05-04 19:33 52.27150 4.77556 394 ft 119 kts
2026-05-04 19:33 52.27973 4.77632 237 ft 118 kts
2026-05-04 19:33 52.28794 4.77707 91 ft 117 kts
2026-05-04 19:34 52.29590 4.77782 0 ft 104 kts
2026-05-04 19:34 52.30167 4.77837 -1 ft 58 kts
2026-05-04 19:34 52.30412 4.77815 2 ft 23 kts 342°
2026-05-04 19:34 52.30555 4.77703 -2 ft 23 kts 332°
2026-05-04 19:35 52.30657 4.77617 -2 ft 11 kts 334°
2026-05-04 19:35 52.30737 4.77597 -2 ft 12 kts
2026-05-04 19:35 52.30828 4.77605 -2 ft 14 kts
2026-05-04 19:35 52.30929 4.77615 -2 ft 15 kts
2026-05-04 19:36 52.31039 4.77624 -2 ft 16 kts
2026-05-04 19:36 52.31155 4.77633 -2 ft 18 kts
2026-05-04 19:36 52.31281 4.77647 -2 ft 18 kts
2026-05-04 19:36 52.31411 4.77654 -2 ft 19 kts 355°
2026-05-04 19:37 52.31513 4.77563 -2 ft 14 kts 315°
2026-05-04 19:37 52.31560 4.77469 -2 ft 12 kts 302°
2026-05-04 19:37 52.31578 4.77325 -2 ft 15 kts 266°
2026-05-04 19:37 52.31572 4.77142 -3 ft 17 kts 267°
2026-05-04 19:38 52.31568 4.76946 -2 ft 18 kts 268°
2026-05-04 19:38 52.31556 4.76739 -2 ft 19 kts 266°
2026-05-04 19:38 52.31550 4.76521 -2 ft 20 kts 269°
2026-05-04 19:38 52.31544 4.76291 -2 ft 21 kts 267°
2026-05-04 19:39 52.31535 4.76053 -2 ft 21 kts 266°
2026-05-04 19:39 52.31527 4.75824 -2 ft 18 kts 266°
2026-05-04 19:39 52.31521 4.75670 -2 ft 8 kts 266°
2026-05-04 19:39 52.31520 4.75629 -2 ft 0 kts 266°
2026-05-04 19:42 52.31517 4.75576 -2 ft 7 kts 265°
2026-05-04 19:42 52.31515 4.75532 -2 ft 1 kts 266°
2026-05-04 19:42 52.31514 4.75506 -2 ft 7 kts 264°
2026-05-04 19:43 52.31469 4.75464 -2 ft 8 kts 178°
2026-05-04 19:43 52.31420 4.75442 -2 ft 8 kts 209°
2026-05-04 19:43 52.31356 4.75415 -2 ft 14 kts 179°
2026-05-04 19:43 52.31254 4.75426 -2 ft 15 kts 175°
2026-05-04 19:44 52.31171 4.75434 -2 ft 8 kts 176°
2026-05-04 19:44 52.31115 4.75402 -2 ft 10 kts 226°
2026-05-04 19:44 52.31076 4.75321 -2 ft 7 kts 219°
2026-05-04 19:44 52.31038 4.75284 -2 ft 6 kts 210°
2026-05-04 19:45 52.31003 4.75263 -2 ft 5 kts 176°
2026-05-04 19:45 52.30974 4.75291 -2 ft 4 kts 145°
2026-05-04 19:45 52.30966 4.75299 -2 ft 0 kts 146°